Погода в Саузове

Россия / Республика Башкортостан     55°56′57″N   53°46′21″E
темп.,
°C
ветер,
м/с
пор.,
м/с
влажн.,
%
обл.,
%
осадки,
мм/ч
давл.,
гПа
погр.,
м
8 марта, пн
пн823:00−15ю349793 0.1 100871
02:00−14ю41094100 0.0 1005266
05:00−11ю61295100 0.6 1002556
08:00−10ю61394100 0.9 998672
11:00−6ю71395100 1.9 996877
14:00−3юз101580100 1.1 9951233
17:00−5зюз8147782 1.1 996928
20:00−8зюз5148711 0.0 999454
9 марта, вт
вт923:00−11юз479143 0.0 1001108
02:00−11ююз119766 0.3 100021
05:00−8зсз489383 2.7 1002265
08:00−14з499544 0.0 1005185
11:00−12з369456 0.0 1008229
14:00−10зюз359373 0.0 1010330
17:00−9юз239386 0.0 1010273
20:00−14зюз129798 0.0 101020
10 марта, ср
ср1023:00−16сз019898 0.0 101020
02:00−16ссв129893 0.0 100920
05:00−15с239696 0.1 100860
08:00−15с51093100 0.1 1008333
11:00−17с71193100 0.2 1008367
14:00−18с71287100 0.0 1010400
17:00−17ссз71282100 0.0 1012563
20:00−18ссз61383100 0.0 1014647
11 марта, чт
чт1123:00−20ссз6138799 0.0 1015555
02:00−23ссз5129087 0.0 1016336
05:00−24ссз5119285 0.0 1017242
08:00−25сз4894100 0.0 1019167
11:00−22зсз469470 0.0 1020254
14:00−18з469371 0.0 1020408
17:00−15з479285 0.1 1021508
20:00−15з3795100 0.1 1021234
12 марта, пт
пт1223:00−14з4894100 0.2 1023245
02:00−13з3795100 0.1 1024175
05:00−15сз479278 0.1 1026132
08:00−18сз46940 0.0 1028100
11:00−14зсз47890 0.0 1030244
14:00−9зсз48850 0.0 1030401
17:00−7зсз37830 0.0 1030486
20:00−12з34900 0.0 103161